CW8822 Caguas PR US current weather conditions

sailwx.info

Wind from 156

Air temperature 23.9° C
Dewpoint 20.8° C

Last reported at 2018-Jan-23 22:55 UTC.
Time now 2018-Jan-24 00:05 UTC

Location: N 18°12' W 066°01'.
View on Google Maps.

See reports from other nearby stations

  
Tides and Currents Weather Stations Pressure Air Temp Water Temp Dewpoint Dewpoint Depression Visibility Wind Speed Wind Dir Waves Ship Positions
date/time (UTC)wind fromknots sea level pressurealtimeterstation pressurevisibilityair tempwater tempwave heightnotes
2018-Jan-23 22:55 156 23.9
2018-Jan-23 22:40 156 23.9
2018-Jan-23 22:25 144 0 gusting 6 23.9
2018-Jan-23 22:10 129 24.4
2018-Jan-23 21:55 117 24.4
2018-Jan-23 21:40 116 2 gusting 9 25.0
2018-Jan-23 21:25 161 25.6
2018-Jan-23 21:10 144 0 gusting 6 25.6
2018-Jan-23 20:55 181 0 gusting 8 26.1
2018-Jan-23 20:40 132 0 gusting 6 26.7
2018-Jan-23 20:25 121 3 gusting 9 26.1
2018-Jan-23 20:10 140 2 gusting 10 25.6
2018-Jan-23 19:55 111 4 gusting 9 26.1
2018-Jan-23 19:40 123 2 gusting 13 26.1
2018-Jan-23 19:25 120 6 gusting 11 25.6
2018-Jan-23 19:10 130 5 gusting 13 25.0
2018-Jan-23 18:55 101 4 gusting 10 25.6
2018-Jan-23 18:40 132 2 gusting 7 26.1
2018-Jan-23 18:25 120 5 gusting 11 27.2
2018-Jan-23 18:10 096 6 gusting 15 26.7
2018-Jan-23 17:55 144 5 gusting 12 26.7
2018-Jan-23 17:40 128 1 gusting 11 25.6
2018-Jan-23 17:25 098 1 gusting 8 27.2
2018-Jan-23 17:10 123 1 gusting 8 26.1
2018-Jan-23 16:55 080 0 gusting 7 26.1
2018-Jan-23 16:40 153 4 gusting 11 26.7
2018-Jan-23 16:25 119 4 gusting 13 26.1
2018-Jan-23 16:10 076 1 gusting 6 26.7
2018-Jan-23 15:55 132 0 gusting 8 26.7
2018-Jan-23 15:40 108 0 gusting 7 26.7
2018-Jan-23 15:35 111 1 gusting 8 26.1
2018-Jan-23 12:24 319 22.2
2018-Jan-23 12:09 319 21.7
2018-Jan-23 11:54 319 21.1
2018-Jan-23 11:39 319 20.6
2018-Jan-23 11:24 319 20.6
2018-Jan-23 11:09 319 19.4
2018-Jan-23 10:54 319 19.4
2018-Jan-23 10:39 319 20.0
2018-Jan-23 10:24 319 20.0
2018-Jan-23 10:09 319 2 gusting 4 20.0
2018-Jan-23 09:54 319 20.0
2018-Jan-23 09:39 319 20.0
2018-Jan-23 09:24 319 20.0
2018-Jan-23 09:09 319 20.6
2018-Jan-23 08:54 319 20.6
2018-Jan-23 08:39 319 20.6
2018-Jan-23 08:24 319 21.1
2018-Jan-23 08:09 319 1 gusting 4 21.1
2018-Jan-23 07:54 319 21.1
2018-Jan-23 07:39 319 0 gusting 4 21.1
2018-Jan-23 07:24 319 1 gusting 5 21.1
2018-Jan-23 07:09 340 0 gusting 4 21.1
2018-Jan-23 06:54 347 0 gusting 3 21.1
2018-Jan-23 06:39 347 21.1
2018-Jan-23 06:24 348 2 gusting 3 20.6
2018-Jan-23 06:09 021 20.6
2018-Jan-23 05:54 021 21.1
2018-Jan-23 05:39 021 21.7
2018-Jan-23 05:24 021 21.7
2018-Jan-23 05:08 021 21.7
2018-Jan-23 04:53 022 21.7
2018-Jan-23 04:38 021 21.7
2018-Jan-23 04:23 021 21.7
2018-Jan-23 04:08 021 21.7
2018-Jan-23 03:53 021 1 gusting 3 21.7
2018-Jan-23 03:38 032 22.2
2018-Jan-23 03:23 032 22.2
2018-Jan-23 03:08 032 22.2
2018-Jan-23 02:53 032 22.2
2018-Jan-23 02:38 032 22.8
2018-Jan-23 02:23 032 22.8
2018-Jan-23 02:08 031 0 gusting 3 22.8
2018-Jan-23 01:53 028 22.8
2018-Jan-23 01:38 111 22.2
2018-Jan-23 01:23 111 22.8
2018-Jan-23 01:08 111 22.8
2018-Jan-23 00:53 111 22.8
2018-Jan-23 00:38 111 22.8
2018-Jan-23 00:23 111 22.8
2018-Jan-23 00:08 111 22.8
2018-Jan-22 23:53 111 22.8
2018-Jan-22 23:38 111 22.8
2018-Jan-22 23:23 111 23.3
2018-Jan-22 23:08 111 23.3
2018-Jan-22 22:53 112 0 gusting 2 23.3
2018-Jan-22 22:38 113 23.3
2018-Jan-22 22:23 117 23.9
2018-Jan-22 22:08 140 0 gusting 6 23.9
2018-Jan-22 21:53 128 24.4
2018-Jan-22 21:38 134 24.4
2018-Jan-22 21:23 138 24.4
2018-Jan-22 21:08 153 0 gusting 8 24.4
2018-Jan-22 20:53 099 24.4
2018-Jan-22 20:38 111 2 gusting 7 25.6
2018-Jan-22 20:23 125 2 gusting 13 25.6
2018-Jan-22 20:08 109 5 gusting 13 26.1
2018-Jan-22 19:53 125 26.7
2018-Jan-22 19:38 112 5 gusting 13 26.1
2018-Jan-22 19:23 109 3 gusting 14 25.6
2018-Jan-22 19:08 128 1 gusting 11 26.1
2018-Jan-22 18:53 117 3 gusting 12 25.6
2018-Jan-22 18:38 129 1 gusting 11 26.1
2018-Jan-22 18:23 059 2 gusting 13 25.6
2018-Jan-22 18:08 128 1 gusting 7 26.1
2018-Jan-22 17:53 092 2 gusting 7 25.6
2018-Jan-22 17:38 128 6 gusting 14 26.1
2018-Jan-22 17:23 140 1 gusting 13 25.6
2018-Jan-22 17:08 111 2 gusting 13 25.6
2018-Jan-22 16:53 053 6 gusting 13 24.4
2018-Jan-22 16:38 116 4 gusting 13 23.9
2018-Jan-22 16:23 114 2 gusting 9 23.3
2018-Jan-22 16:08 126 2 gusting 12 23.3
2018-Jan-22 15:53 142 0 gusting 7 23.9
2018-Jan-22 15:38 122 2 gusting 9 23.9
2018-Jan-22 15:23 134 1 gusting 9 22.8
2018-Jan-22 15:08 113 6 gusting 13 22.8
2018-Jan-22 14:53 068 24.4
2018-Jan-22 14:38 265 24.4
2018-Jan-22 14:23 257 24.4
2018-Jan-22 14:08 131 23.9
2018-Jan-22 13:53 131 23.3
2018-Jan-22 13:38 144 23.3
2018-Jan-22 13:22 144 23.3
2018-Jan-22 13:07 151 23.3
2018-Jan-22 12:52 151 22.8
2018-Jan-22 12:37 151 22.8
2018-Jan-22 12:22 151 22.2
2018-Jan-22 12:07 151 22.2
2018-Jan-22 11:52 151 21.7
2018-Jan-22 11:37 152 21.1
2018-Jan-22 11:22 152 20.6
2018-Jan-22 11:07 152 20.6
2018-Jan-22 10:52 152 20.6
2018-Jan-22 10:37 152 20.6
2018-Jan-22 10:22 152 20.6
2018-Jan-22 10:07 151 20.6
2018-Jan-22 09:52 151 21.1
2018-Jan-22 09:37 151 21.1
2018-Jan-22 09:22 151 21.1
2018-Jan-22 09:07 151 21.1
2018-Jan-22 08:52 152 21.7
2018-Jan-22 08:37 152 21.1
2018-Jan-22 08:22 152 0 gusting 2 21.1
2018-Jan-22 08:07 149 0 gusting 2 21.1
2018-Jan-22 07:52 143 21.1
2018-Jan-22 07:37 143 21.1
2018-Jan-22 07:22 142 21.1
2018-Jan-22 07:07 143 21.1
2018-Jan-22 06:52 143 21.1
2018-Jan-22 06:37 143 21.1
2018-Jan-22 06:22 143 21.1
2018-Jan-22 06:07 143 21.1
2018-Jan-22 05:52 143 21.7
2018-Jan-22 05:37 143 21.7
2018-Jan-22 05:22 143 21.7
2018-Jan-22 05:07 143 22.2
2018-Jan-22 04:52 143 22.2
2018-Jan-22 04:37 143 22.2
2018-Jan-22 04:22 143 0 gusting 3 22.2
2018-Jan-22 04:07 143 21.7
2018-Jan-22 03:52 143 21.7
2018-Jan-22 03:36 143 21.7
2018-Jan-22 03:21 143 22.2
2018-Jan-22 03:06 143 22.2
2018-Jan-22 02:51 143 22.8
2018-Jan-22 02:36 143 22.8
2018-Jan-22 02:21 143 22.8
2018-Jan-22 02:06 146 22.8
2018-Jan-22 01:51 146 22.8
2018-Jan-22 01:36 146 22.8
2018-Jan-22 01:21 146 22.8
2018-Jan-22 01:06 146 22.8
2018-Jan-22 00:51 146 22.8
2018-Jan-22 00:36 146 23.3
2018-Jan-22 00:21 146 23.3
2018-Jan-22 00:06 148 0 gusting 6 23.3